STARLINK-5748, 55604

Orbit data source: Space-Track

STARLINK-5748, 55604 is a payload satellite owned by SpaceX/Seattle (US) in LEO that was launched on Sun, 12 Feb 2023 UTC via an FALCON 9 launch vehicle from the Air Force Eastern Test Range (AFETR). Payload-class satellites include a variety of spacecraft equipped with specific instruments for various scientific and technological missions. These include communications satellites like Starlink; space stations such as the ISS; scientific satellites like the Hubble; Earth observation satellites from companies like Planet Labs, Umbra, and HawkEye 360; GPS; miniature CubeSats for education and research; and military/defense satellites.

Loading next visibility...
Identifier
55604, 2023-020AM
Orbit
LEO
Country
Flag of USUS
Related business
Manufacturer
SpaceX/Seattle
Mission
Operational Commercial Communications
Bus & Motor
STARLINK, Unknown motor
Mass
305 kg wet, ~290 kg dry
Launch date (UTC)
2023-02-12 (3 years ago)
Launch vehicle
FALCON 9
Launch site
Air Force Eastern Test Range (AFETR)
Object type
Payload
Rocket body
Debris
Shape & HBR
Box + 1 Pan, 10.1 m
Radar Cross Section
13.562 m², Large (>1 m²)

Expand to show TLE details & history
Last TLE update: 1 day ago

TLE from 1 day ago
0 STARLINK-5748
1 55604U 23020AM  26061.26672508  .00065592  00000-0  47583-2 0  9994
2 55604  43.0042  18.9078 0002039 254.3254 105.7364 15.03063474168102
Epoch: 2026-03-02T06:24Z
TLE epoch observation values (Epoch: 2026-03-02T06:24:05.046Z)
Latitude
-0.00001°
Longitude
122.82416°
Altitude
557.618 km
Speed
7.584 km/s
True Right ascension
01h 15m 37s
True Declination
0° 00' 00"
Sunlit
Object was in daylight at epoch
Visualization orbit readout
Latitude
Unknown
Longitude
Unknown
Altitude
Unknown
Speed
Unknown
Apparent Right ascension
Unknown
Apparent Declination
Unknown
Sunlit
N/A
Visualization observer readout
Local Sidereal Time
11:20:56
Azimuth
Unknown
Elevation
Unknown
Doppler factor
Unknown
Orbital elements
Apogee altitude
560.795 km
Perigee altitude
557.966 km
Semi-major axis
6,937.517 km
Eccentricity
0.0002
Inclination
43.0042°
RAAN
18.9078°
Arg. of periapsis
254.3254°
True anomaly
105.75889°
Mean anomaly
105.7364°
Eccentric anomaly
105.74764°
Mean motion
3.7561 °/min
Orbital period
95.84 mins
BSTAR
0.0047583
Loading maneuver chart data...
Computing Atmospheric mass density...
Loading historical data...
Loading historical data...
Loading historical data...
Loading historical data...
Loading historical data...
Loading historical data...
Loading historical data...

Documentation

Showing up to 5 results
|